Year,Month,Day,Hour,Minute,Value (Times are PST for temperature in C)
2009,07,17,00,00,20.50
2009,07,17,00,01,20.60
2009,07,17,00,02,20.70
2009,07,17,00,03,20.70
2009,07,17,00,04,20.80
2009,07,17,00,05,20.80
2009,07,17,00,06,20.80
2009,07,17,00,07,20.90
2009,07,17,00,08,20.90
2009,07,17,00,09,20.90
2009,07,17,00,10,20.90
2009,07,17,00,11,20.90
2009,07,17,00,12,20.90
2009,07,17,00,13,20.90
2009,07,17,00,14,20.80
2009,07,17,00,15,20.80
2009,07,17,00,16,20.80
2009,07,17,00,17,20.80
2009,07,17,00,18,20.80
2009,07,17,00,19,20.80
2009,07,17,00,20,20.80
2009,07,17,00,21,20.80
2009,07,17,00,22,20.70
2009,07,17,00,23,20.70
2009,07,17,00,24,20.70
2009,07,17,00,25,20.70
2009,07,17,00,26,20.70
2009,07,17,00,27,20.70
2009,07,17,00,28,20.70
2009,07,17,00,29,20.70
2009,07,17,00,30,20.60
2009,07,17,00,31,20.60
2009,07,17,00,32,20.60
2009,07,17,00,33,20.60
2009,07,17,00,34,20.60
2009,07,17,00,35,20.60
2009,07,17,00,36,20.50
2009,07,17,00,37,20.50
2009,07,17,00,38,20.40
2009,07,17,00,39,20.40
2009,07,17,00,40,20.30
2009,07,17,00,41,20.20
2009,07,17,00,42,20.10
2009,07,17,00,43,20.00
2009,07,17,00,44,19.90
2009,07,17,00,45,19.90
2009,07,17,00,46,19.80
2009,07,17,00,47,19.70
2009,07,17,00,48,19.60
2009,07,17,00,49,19.60
2009,07,17,00,50,19.50
2009,07,17,00,51,19.40
2009,07,17,00,52,19.40
2009,07,17,00,53,19.40
2009,07,17,00,54,19.30
2009,07,17,00,55,19.30
2009,07,17,00,56,19.30
2009,07,17,00,57,19.30
2009,07,17,00,58,19.30
2009,07,17,00,59,19.30
2009,07,17,01,00,19.30
2009,07,17,01,01,19.30
2009,07,17,01,02,19.30
2009,07,17,01,03,19.20
2009,07,17,01,04,19.20
2009,07,17,01,05,19.20
2009,07,17,01,06,19.20
2009,07,17,01,07,19.20
2009,07,17,01,08,19.20
2009,07,17,01,09,19.20
2009,07,17,01,10,19.30
2009,07,17,01,11,19.30
2009,07,17,01,12,19.40
2009,07,17,01,13,19.40
2009,07,17,01,14,19.50
2009,07,17,01,15,19.50
2009,07,17,01,16,19.60
2009,07,17,01,17,19.60
2009,07,17,01,18,19.60
2009,07,17,01,19,19.70
2009,07,17,01,20,19.70
2009,07,17,01,21,19.70
2009,07,17,01,22,19.70
2009,07,17,01,23,19.70
2009,07,17,01,24,19.60
2009,07,17,01,25,19.60
2009,07,17,01,26,19.50
2009,07,17,01,27,19.50
2009,07,17,01,28,19.40
2009,07,17,01,29,19.40
2009,07,17,01,30,19.50
2009,07,17,01,31,19.50
2009,07,17,01,32,19.60
2009,07,17,01,33,19.60
2009,07,17,01,34,19.70
2009,07,17,01,35,19.70
2009,07,17,01,36,19.80
2009,07,17,01,37,19.80
2009,07,17,01,38,19.80
2009,07,17,01,39,19.80
2009,07,17,01,40,19.80
2009,07,17,01,41,19.70
2009,07,17,01,42,19.70
2009,07,17,01,43,19.70
2009,07,17,01,44,19.70
2009,07,17,01,45,19.60
2009,07,17,01,46,19.60
2009,07,17,01,47,19.50
2009,07,17,01,48,19.50
2009,07,17,01,49,19.50
2009,07,17,01,50,19.50
2009,07,17,01,51,19.40
2009,07,17,01,52,19.40
2009,07,17,01,53,19.40
2009,07,17,01,54,19.40
2009,07,17,01,55,19.40
2009,07,17,01,56,19.50
2009,07,17,01,57,19.50
2009,07,17,01,58,19.60
2009,07,17,01,59,19.60
2009,07,17,02,00,19.70
2009,07,17,02,01,19.70
2009,07,17,02,02,19.70
2009,07,17,02,03,19.80
2009,07,17,02,04,19.80
2009,07,17,02,05,19.80
2009,07,17,02,06,19.80
2009,07,17,02,07,19.80
2009,07,17,02,08,19.90
2009,07,17,02,09,19.90
2009,07,17,02,10,19.90
2009,07,17,02,11,19.90
2009,07,17,02,12,19.90
2009,07,17,02,13,19.90
2009,07,17,02,14,19.90
2009,07,17,02,15,19.90
2009,07,17,02,16,19.90
2009,07,17,02,17,19.90
2009,07,17,02,18,19.90
2009,07,17,02,19,19.90
2009,07,17,02,20,19.90
2009,07,17,02,21,19.90
2009,07,17,02,22,19.80
2009,07,17,02,23,19.80
2009,07,17,02,24,19.80
2009,07,17,02,25,19.80
2009,07,17,02,26,19.80
2009,07,17,02,27,19.80
2009,07,17,02,28,19.70
2009,07,17,02,29,19.70
2009,07,17,02,30,19.70
2009,07,17,02,31,19.60
2009,07,17,02,32,19.60
2009,07,17,02,33,19.60
2009,07,17,02,34,19.60
2009,07,17,02,35,19.50
2009,07,17,02,36,19.50
2009,07,17,02,37,19.50
2009,07,17,02,38,19.50
2009,07,17,02,39,19.50
2009,07,17,02,40,19.60
2009,07,17,02,41,19.60
2009,07,17,02,42,19.60
2009,07,17,02,43,19.60
2009,07,17,02,44,19.60
2009,07,17,02,45,19.60
2009,07,17,02,46,19.60
2009,07,17,02,47,19.60
2009,07,17,02,48,19.60
2009,07,17,02,49,19.60
2009,07,17,02,50,19.60
2009,07,17,02,51,19.60
2009,07,17,02,52,19.60
2009,07,17,02,53,19.70
2009,07,17,02,54,19.70
2009,07,17,02,55,19.70
2009,07,17,02,56,19.70
2009,07,17,02,57,19.70
2009,07,17,02,58,19.70
2009,07,17,02,59,19.70
2009,07,17,03,00,19.70
2009,07,17,03,01,19.70
2009,07,17,03,02,19.70
2009,07,17,03,03,19.60
2009,07,17,03,04,19.60
2009,07,17,03,05,19.60
2009,07,17,03,06,19.60
2009,07,17,03,07,19.60
2009,07,17,03,08,19.60
2009,07,17,03,09,19.50
2009,07,17,03,10,19.50
2009,07,17,03,11,19.50
2009,07,17,03,12,19.50
2009,07,17,03,13,19.50
2009,07,17,03,14,19.50
2009,07,17,03,15,19.60
2009,07,17,03,16,19.60
2009,07,17,03,17,19.60
2009,07,17,03,18,19.60
2009,07,17,03,19,19.70
2009,07,17,03,20,19.70
2009,07,17,03,21,19.70
2009,07,17,03,22,19.70
2009,07,17,03,23,19.70
2009,07,17,03,24,19.80
2009,07,17,03,25,19.80
2009,07,17,03,26,19.80
2009,07,17,03,27,19.90
2009,07,17,03,28,19.90
2009,07,17,03,29,19.90
2009,07,17,03,30,19.90
2009,07,17,03,31,19.80
2009,07,17,03,32,19.80
2009,07,17,03,33,19.80
2009,07,17,03,34,19.80
2009,07,17,03,35,19.80
2009,07,17,03,36,19.80
2009,07,17,03,37,19.80
2009,07,17,03,38,19.80
2009,07,17,03,39,19.80
2009,07,17,03,40,19.80
2009,07,17,03,41,19.80
2009,07,17,03,42,19.80
2009,07,17,03,43,19.80
2009,07,17,03,44,19.80
2009,07,17,03,45,19.80
2009,07,17,03,46,19.80
2009,07,17,03,47,19.70
2009,07,17,03,48,19.70
2009,07,17,03,49,19.60
2009,07,17,03,50,19.50
2009,07,17,03,51,19.50
2009,07,17,03,52,19.40
2009,07,17,03,53,19.40
2009,07,17,03,54,19.30
2009,07,17,03,55,19.20
2009,07,17,03,56,19.20
2009,07,17,03,57,19.10
2009,07,17,03,58,19.10
2009,07,17,03,59,19.00
2009,07,17,04,00,19.00
2009,07,17,04,01,18.90
2009,07,17,04,02,18.90
2009,07,17,04,03,18.90
2009,07,17,04,04,18.90
2009,07,17,04,05,18.90
2009,07,17,04,06,18.90
2009,07,17,04,07,18.90
2009,07,17,04,08,18.90
2009,07,17,04,09,18.90
2009,07,17,04,10,18.90
2009,07,17,04,11,19.00
2009,07,17,04,12,19.00
2009,07,17,04,13,19.00
2009,07,17,04,14,19.10
2009,07,17,04,15,19.10
2009,07,17,04,16,19.10
2009,07,17,04,17,19.10
2009,07,17,04,18,19.20
2009,07,17,04,19,19.20
2009,07,17,04,20,19.20
2009,07,17,04,21,19.20
2009,07,17,04,22,19.20
2009,07,17,04,23,19.20
2009,07,17,04,24,19.20
2009,07,17,04,25,19.20
2009,07,17,04,26,19.20
2009,07,17,04,27,19.20
2009,07,17,04,28,19.20
2009,07,17,04,29,19.20
2009,07,17,04,30,19.20
2009,07,17,04,31,19.20
2009,07,17,04,32,19.20
2009,07,17,04,33,19.20
2009,07,17,04,34,19.20
2009,07,17,04,35,19.20
2009,07,17,04,36,19.20
2009,07,17,04,37,19.20
2009,07,17,04,38,19.20
2009,07,17,04,39,19.20
2009,07,17,04,40,19.20
2009,07,17,04,41,19.10
2009,07,17,04,42,19.10
2009,07,17,04,43,19.10
2009,07,17,04,44,19.10
2009,07,17,04,45,19.10
2009,07,17,04,46,19.10
2009,07,17,04,47,19.10
2009,07,17,04,48,19.10
2009,07,17,04,49,19.10
2009,07,17,04,50,19.10
2009,07,17,04,51,19.10
2009,07,17,04,52,19.10
2009,07,17,04,53,19.10
2009,07,17,04,54,19.10
2009,07,17,04,55,19.10
2009,07,17,04,56,19.20
2009,07,17,04,57,19.20
2009,07,17,04,58,19.20
2009,07,17,04,59,19.20
2009,07,17,05,00,19.20
2009,07,17,05,01,19.20
2009,07,17,05,02,19.20
2009,07,17,05,03,19.30
2009,07,17,05,04,19.30
2009,07,17,05,05,19.30
2009,07,17,05,06,19.30
2009,07,17,05,07,19.30
2009,07,17,05,08,19.30
2009,07,17,05,09,19.40
2009,07,17,05,10,19.40
2009,07,17,05,11,19.40
2009,07,17,05,12,19.40
2009,07,17,05,13,19.40
2009,07,17,05,14,19.40
2009,07,17,05,15,19.40
2009,07,17,05,16,19.40
2009,07,17,05,17,19.40
2009,07,17,05,18,19.40
2009,07,17,05,19,19.30
2009,07,17,05,20,19.30
2009,07,17,05,21,19.30
2009,07,17,05,22,19.30
2009,07,17,05,23,19.30
2009,07,17,05,24,19.20
2009,07,17,05,25,19.20
2009,07,17,05,26,19.20
2009,07,17,05,27,19.20
2009,07,17,05,28,19.20
2009,07,17,05,29,19.30
2009,07,17,05,30,19.30
2009,07,17,05,31,19.30
2009,07,17,05,32,19.30
2009,07,17,05,33,19.30
2009,07,17,05,34,19.30
2009,07,17,05,35,19.30
2009,07,17,05,36,19.20
2009,07,17,05,37,19.20
2009,07,17,05,38,19.20
2009,07,17,05,39,19.20
2009,07,17,05,40,19.20
2009,07,17,05,41,19.20
2009,07,17,05,42,19.20
2009,07,17,05,43,19.20
2009,07,17,05,44,19.20
2009,07,17,05,45,19.20
2009,07,17,05,46,19.20
2009,07,17,05,47,19.20
2009,07,17,05,48,19.20
2009,07,17,05,49,19.20
2009,07,17,05,50,19.20
2009,07,17,05,51,19.20
2009,07,17,05,52,19.20
2009,07,17,05,53,19.20
2009,07,17,05,54,19.20
2009,07,17,05,55,19.20
2009,07,17,05,56,19.20
2009,07,17,05,57,19.20
2009,07,17,05,58,19.20
2009,07,17,05,59,19.20
2009,07,17,06,00,19.30
2009,07,17,06,01,19.30
2009,07,17,06,02,19.30
2009,07,17,06,03,19.40
2009,07,17,06,04,19.40
2009,07,17,06,05,19.50
2009,07,17,06,06,19.50
2009,07,17,06,07,19.60
2009,07,17,06,08,19.60
2009,07,17,06,09,19.70
2009,07,17,06,10,19.70
2009,07,17,06,11,19.70
2009,07,17,06,12,19.70
2009,07,17,06,13,19.80
2009,07,17,06,14,19.80
2009,07,17,06,15,19.80
2009,07,17,06,16,19.80
2009,07,17,06,17,19.80
2009,07,17,06,18,19.90
2009,07,17,06,19,19.90
2009,07,17,06,20,19.90
2009,07,17,06,21,19.90
2009,07,17,06,22,19.90
2009,07,17,06,23,19.90
2009,07,17,06,24,19.90
2009,07,17,06,25,19.90
2009,07,17,06,26,20.00
2009,07,17,06,27,20.00
2009,07,17,06,28,20.00
2009,07,17,06,29,20.00
2009,07,17,06,30,20.00
2009,07,17,06,31,20.00
2009,07,17,06,32,20.00
2009,07,17,06,33,20.00
2009,07,17,06,34,20.10
2009,07,17,06,35,20.10
2009,07,17,06,36,20.10
2009,07,17,06,37,20.10
2009,07,17,06,38,20.10
2009,07,17,06,39,20.10
2009,07,17,06,40,20.10
2009,07,17,06,41,20.20
2009,07,17,06,42,20.20
2009,07,17,06,43,20.20
2009,07,17,06,44,20.20
2009,07,17,06,45,20.20
2009,07,17,06,46,20.30
2009,07,17,06,47,20.30
2009,07,17,06,48,20.40
2009,07,17,06,49,20.40
2009,07,17,06,50,20.40
2009,07,17,06,51,20.40
2009,07,17,06,52,20.50
2009,07,17,06,53,20.50
2009,07,17,06,54,20.50
2009,07,17,06,55,20.60
2009,07,17,06,56,20.70
2009,07,17,06,57,20.70
2009,07,17,06,58,20.80
2009,07,17,06,59,20.80
2009,07,17,07,00,20.80
2009,07,17,07,01,20.80
2009,07,17,07,02,20.80
2009,07,17,07,03,20.90
2009,07,17,07,04,20.90
2009,07,17,07,05,20.90
2009,07,17,07,06,20.90
2009,07,17,07,07,20.90
2009,07,17,07,08,20.90
2009,07,17,07,09,20.90
2009,07,17,07,10,20.80
2009,07,17,07,11,20.80
2009,07,17,07,12,20.80
2009,07,17,07,13,20.80
2009,07,17,07,14,20.80
2009,07,17,07,15,20.70
2009,07,17,07,16,20.70
2009,07,17,07,17,20.70
2009,07,17,07,18,20.60
2009,07,17,07,19,20.60
2009,07,17,07,20,20.50
2009,07,17,07,21,20.50
2009,07,17,07,22,20.40
2009,07,17,07,23,20.40
2009,07,17,07,24,20.40
2009,07,17,07,25,20.40
2009,07,17,07,26,20.30
2009,07,17,07,27,20.30
2009,07,17,07,28,20.30
2009,07,17,07,29,20.30
2009,07,17,07,30,20.30
2009,07,17,07,31,20.30
2009,07,17,07,32,20.30
2009,07,17,07,33,20.30
2009,07,17,07,34,20.20
2009,07,17,07,35,20.20
2009,07,17,07,36,20.20
2009,07,17,07,37,20.10
2009,07,17,07,38,20.10
2009,07,17,07,39,20.10
2009,07,17,07,40,20.00
2009,07,17,07,41,20.00
2009,07,17,07,42,20.00
2009,07,17,07,43,19.90
2009,07,17,07,44,19.90
2009,07,17,07,45,19.90
2009,07,17,07,46,19.90
2009,07,17,07,47,19.80
2009,07,17,07,48,19.80
2009,07,17,07,49,19.80
2009,07,17,07,50,19.80
2009,07,17,07,51,19.80
2009,07,17,07,52,19.80
2009,07,17,07,53,19.80
2009,07,17,07,54,19.80
2009,07,17,07,55,19.80
2009,07,17,07,56,19.80
2009,07,17,07,57,19.80
2009,07,17,07,58,19.80
2009,07,17,07,59,19.80
2009,07,17,08,00,19.80
2009,07,17,08,01,19.80
2009,07,17,08,02,19.90
2009,07,17,08,03,19.90
2009,07,17,08,04,19.90
2009,07,17,08,05,20.00
2009,07,17,08,06,20.00
2009,07,17,08,07,20.00
2009,07,17,08,08,20.10
2009,07,17,08,09,20.10
2009,07,17,08,10,20.10
2009,07,17,08,11,20.20
2009,07,17,08,12,20.30
2009,07,17,08,13,20.30
2009,07,17,08,14,20.30
2009,07,17,08,15,20.40
2009,07,17,08,16,20.40
2009,07,17,08,17,20.50
2009,07,17,08,18,20.60
2009,07,17,08,19,20.60
2009,07,17,08,20,20.70
2009,07,17,08,21,20.70
2009,07,17,08,22,20.70
2009,07,17,08,23,20.60
2009,07,17,08,24,20.60
2009,07,17,08,25,20.60
2009,07,17,08,26,20.60
2009,07,17,08,27,20.50
2009,07,17,08,28,20.50
2009,07,17,08,29,20.40
2009,07,17,08,30,20.50
2009,07,17,08,31,20.50
2009,07,17,08,32,20.60
2009,07,17,08,33,20.60
2009,07,17,08,34,20.60
2009,07,17,08,35,20.60
2009,07,17,08,36,20.60
2009,07,17,08,37,20.60
2009,07,17,08,38,20.60
2009,07,17,08,39,20.70
2009,07,17,08,40,20.70
2009,07,17,08,41,20.70
2009,07,17,08,42,20.80
2009,07,17,08,43,20.80
2009,07,17,08,44,20.80
2009,07,17,08,45,20.80
2009,07,17,08,46,20.90
2009,07,17,08,47,20.90
2009,07,17,08,48,20.90
2009,07,17,08,49,20.90
2009,07,17,08,50,20.90
2009,07,17,08,51,21.00
2009,07,17,08,52,21.10
2009,07,17,08,53,21.10
2009,07,17,08,54,21.20
2009,07,17,08,55,21.20
2009,07,17,08,56,21.30
2009,07,17,08,57,21.30
2009,07,17,08,58,21.30
2009,07,17,08,59,21.30
2009,07,17,09,00,21.30
2009,07,17,09,01,21.40
2009,07,17,09,02,21.40
2009,07,17,09,03,21.50
2009,07,17,09,04,21.50
2009,07,17,09,05,21.50
2009,07,17,09,06,21.60
2009,07,17,09,07,21.60
2009,07,17,09,08,21.70
2009,07,17,09,09,21.70
2009,07,17,09,10,21.80
2009,07,17,09,11,21.80
2009,07,17,09,12,21.80
2009,07,17,09,13,21.80
2009,07,17,09,14,21.80
2009,07,17,09,15,21.80
2009,07,17,09,16,21.80
2009,07,17,09,17,21.80
2009,07,17,09,18,21.80
2009,07,17,09,19,21.90
2009,07,17,09,20,21.90
2009,07,17,09,21,21.80
2009,07,17,09,22,21.80
2009,07,17,09,23,21.80
2009,07,17,09,24,21.90
2009,07,17,09,25,22.00
2009,07,17,09,26,22.00
2009,07,17,09,27,22.00
2009,07,17,09,28,21.90
2009,07,17,09,29,21.90
2009,07,17,09,30,21.80
2009,07,17,09,31,21.80
2009,07,17,09,32,21.80
2009,07,17,09,33,21.80
2009,07,17,09,34,21.80
2009,07,17,09,35,21.80
2009,07,17,09,36,21.80
2009,07,17,09,37,21.80
2009,07,17,09,38,21.80
2009,07,17,09,39,21.90
2009,07,17,09,40,21.90
2009,07,17,09,41,21.90
2009,07,17,09,42,21.90
2009,07,17,09,43,21.90
2009,07,17,09,44,22.00
2009,07,17,09,45,22.00
2009,07,17,09,46,22.10
2009,07,17,09,47,22.10
2009,07,17,09,48,22.10
2009,07,17,09,49,22.20
2009,07,17,09,50,22.20
2009,07,17,09,51,22.20
2009,07,17,09,52,22.30
2009,07,17,09,53,22.30
2009,07,17,09,54,22.30
2009,07,17,09,55,22.30
2009,07,17,09,56,22.30
2009,07,17,09,57,22.30
2009,07,17,09,58,22.40
2009,07,17,09,59,22.40
2009,07,17,10,00,22.50
2009,07,17,10,01,22.60
2009,07,17,10,02,22.60
2009,07,17,10,03,22.60
2009,07,17,10,04,22.70
2009,07,17,10,05,22.60
2009,07,17,10,06,22.60
2009,07,17,10,07,22.70
2009,07,17,10,08,22.70
2009,07,17,10,09,22.70
2009,07,17,10,10,22.80
2009,07,17,10,11,22.90
2009,07,17,10,12,22.90
2009,07,17,10,13,22.90
2009,07,17,10,14,22.90
2009,07,17,10,15,22.90
2009,07,17,10,16,22.90
2009,07,17,10,17,22.90
2009,07,17,10,18,23.00
2009,07,17,10,19,23.00
2009,07,17,10,20,23.00
2009,07,17,10,21,22.90
2009,07,17,10,22,22.90
2009,07,17,10,23,22.90
2009,07,17,10,24,22.90
2009,07,17,10,25,22.90
2009,07,17,10,26,22.90
2009,07,17,10,27,22.80
2009,07,17,10,28,22.80
2009,07,17,10,29,22.90
2009,07,17,10,30,23.00
2009,07,17,10,31,23.10
2009,07,17,10,32,23.10
2009,07,17,10,33,23.20
2009,07,17,10,34,23.20
2009,07,17,10,35,23.30
2009,07,17,10,36,23.30
2009,07,17,10,37,23.40
2009,07,17,10,38,23.40
2009,07,17,10,39,23.30
2009,07,17,10,40,23.40
2009,07,17,10,41,23.50
2009,07,17,10,42,23.60
2009,07,17,10,43,23.70
2009,07,17,10,44,23.60
2009,07,17,10,45,23.50
2009,07,17,10,46,23.30
2009,07,17,10,47,23.40
2009,07,17,10,48,23.50
2009,07,17,10,49,23.50
2009,07,17,10,50,23.60
2009,07,17,10,51,23.70
2009,07,17,10,52,23.80
2009,07,17,10,53,23.80
2009,07,17,10,54,23.70
2009,07,17,10,55,23.70
2009,07,17,10,56,23.60
2009,07,17,10,57,23.50
2009,07,17,10,58,23.40
2009,07,17,10,59,23.40
2009,07,17,11,00,23.30
2009,07,17,11,01,23.40
2009,07,17,11,02,23.40
2009,07,17,11,03,23.50
2009,07,17,11,04,23.60
2009,07,17,11,05,23.50
2009,07,17,11,06,23.50
2009,07,17,11,07,23.50
2009,07,17,11,08,23.60
2009,07,17,11,09,23.70
2009,07,17,11,10,23.70
2009,07,17,11,11,23.70
2009,07,17,11,12,23.80
2009,07,17,11,13,23.90
2009,07,17,11,14,23.90
2009,07,17,11,15,24.00
2009,07,17,11,16,24.00
2009,07,17,11,17,24.00
2009,07,17,11,18,24.10
2009,07,17,11,19,24.20
2009,07,17,11,20,24.10
2009,07,17,11,21,24.00
2009,07,17,11,22,24.00
2009,07,17,11,23,24.00
2009,07,17,11,24,24.00
2009,07,17,11,25,24.10
2009,07,17,11,26,24.10
2009,07,17,11,27,24.20
2009,07,17,11,28,24.20
2009,07,17,11,29,24.10
2009,07,17,11,30,24.20
2009,07,17,11,31,24.20
2009,07,17,11,32,24.20
2009,07,17,11,33,24.30
2009,07,17,11,34,24.30
2009,07,17,11,35,24.40
2009,07,17,11,36,24.40
2009,07,17,11,37,24.40
2009,07,17,11,38,24.40
2009,07,17,11,39,24.40
2009,07,17,11,40,24.30
2009,07,17,11,41,24.30
2009,07,17,11,42,24.30
2009,07,17,11,43,24.40
2009,07,17,11,44,24.50
2009,07,17,11,45,24.40
2009,07,17,11,46,24.30
2009,07,17,11,47,24.30
2009,07,17,11,48,24.40
2009,07,17,11,49,24.40
2009,07,17,11,50,24.40
2009,07,17,11,51,24.30
2009,07,17,11,52,24.30
2009,07,17,11,53,24.40
2009,07,17,11,54,24.30
2009,07,17,11,55,24.30
2009,07,17,11,56,24.30
2009,07,17,11,57,24.30
2009,07,17,11,58,24.30
2009,07,17,11,59,24.40
2009,07,17,12,00,24.50
2009,07,17,12,01,24.50
2009,07,17,12,02,24.60
2009,07,17,12,03,24.70
2009,07,17,12,04,24.70
2009,07,17,12,05,24.60
2009,07,17,12,06,24.60
2009,07,17,12,07,24.50
2009,07,17,12,08,24.50
2009,07,17,12,09,24.40
2009,07,17,12,10,24.40
2009,07,17,12,11,24.50
2009,07,17,12,12,24.60
2009,07,17,12,13,24.50
2009,07,17,12,14,24.60
2009,07,17,12,15,24.70
2009,07,17,12,16,24.80
2009,07,17,12,17,24.80
2009,07,17,12,18,24.70
2009,07,17,12,19,24.70
2009,07,17,12,20,24.60
2009,07,17,12,21,24.60
2009,07,17,12,22,24.60
2009,07,17,12,23,24.60
2009,07,17,12,24,24.70
2009,07,17,12,25,24.70
2009,07,17,12,26,24.70
2009,07,17,12,27,24.70
2009,07,17,12,28,24.70
2009,07,17,12,29,24.70
2009,07,17,12,30,24.60
2009,07,17,12,31,24.60
2009,07,17,12,32,24.70
2009,07,17,12,33,24.80
2009,07,17,12,34,24.70
2009,07,17,12,35,24.70
2009,07,17,12,36,24.70
2009,07,17,12,37,24.80
2009,07,17,12,38,24.80
2009,07,17,12,39,24.80
2009,07,17,12,40,24.80
2009,07,17,12,41,24.80
2009,07,17,12,42,25.00
2009,07,17,12,43,25.10
2009,07,17,12,44,25.30
2009,07,17,12,45,25.50
2009,07,17,12,46,25.60
2009,07,17,12,47,25.70
2009,07,17,12,48,25.60
2009,07,17,12,49,25.60
2009,07,17,12,50,25.60
2009,07,17,12,51,25.60
2009,07,17,12,52,25.50
2009,07,17,12,53,25.50
2009,07,17,12,54,25.50
2009,07,17,12,55,25.40
2009,07,17,12,56,25.30
2009,07,17,12,57,25.40
2009,07,17,12,58,25.50
2009,07,17,12,59,25.60
2009,07,17,13,00,25.60
2009,07,17,13,01,25.60
2009,07,17,13,02,25.60
2009,07,17,13,03,25.60
2009,07,17,13,04,25.80
2009,07,17,13,05,25.90
2009,07,17,13,06,25.90
2009,07,17,13,07,26.00
2009,07,17,13,08,26.10
2009,07,17,13,09,26.10
2009,07,17,13,10,26.00
2009,07,17,13,11,25.90
2009,07,17,13,12,25.90
2009,07,17,13,13,25.90
2009,07,17,13,14,25.90
2009,07,17,13,15,25.90
2009,07,17,13,16,25.90
2009,07,17,13,17,25.90
2009,07,17,13,18,25.90
2009,07,17,13,19,25.90
2009,07,17,13,20,25.90
2009,07,17,13,21,25.90
2009,07,17,13,22,25.90
2009,07,17,13,23,25.90
2009,07,17,13,24,25.90
2009,07,17,13,25,25.80
2009,07,17,13,26,25.70
2009,07,17,13,27,25.70
2009,07,17,13,28,25.70
2009,07,17,13,29,25.90
2009,07,17,13,30,26.00
2009,07,17,13,31,26.10
2009,07,17,13,32,26.00
2009,07,17,13,33,26.00
2009,07,17,13,34,26.10
2009,07,17,13,35,26.20
2009,07,17,13,36,26.10
2009,07,17,13,37,26.00
2009,07,17,13,38,26.00
2009,07,17,13,39,25.90
2009,07,17,13,40,25.90
2009,07,17,13,41,25.90
2009,07,17,13,42,26.00
2009,07,17,13,43,26.10
2009,07,17,13,44,26.20
2009,07,17,13,45,26.20
2009,07,17,13,46,26.30
2009,07,17,13,47,26.30
2009,07,17,13,48,26.30
2009,07,17,13,49,26.30
2009,07,17,13,50,26.40
2009,07,17,13,51,26.50
2009,07,17,13,52,26.50
2009,07,17,13,53,26.50
2009,07,17,13,54,26.40
2009,07,17,13,55,26.40
2009,07,17,13,56,26.40
2009,07,17,13,57,26.60
2009,07,17,13,58,26.70
2009,07,17,13,59,26.70
2009,07,17,14,00,26.80
2009,07,17,14,01,26.80
2009,07,17,14,02,26.70
2009,07,17,14,03,26.50
2009,07,17,14,04,26.40
2009,07,17,14,05,26.30
2009,07,17,14,06,26.40
2009,07,17,14,07,26.60
2009,07,17,14,08,26.70
2009,07,17,14,09,26.80
2009,07,17,14,10,26.80
2009,07,17,14,11,27.00
2009,07,17,14,12,27.00
2009,07,17,14,13,26.90
2009,07,17,14,14,26.80
2009,07,17,14,15,26.80
2009,07,17,14,16,26.60
2009,07,17,14,17,26.50
2009,07,17,14,18,26.50
2009,07,17,14,19,26.60
2009,07,17,14,20,26.60
2009,07,17,14,21,26.70
2009,07,17,14,22,26.60
2009,07,17,14,23,26.60
2009,07,17,14,24,26.60
2009,07,17,14,25,26.70
2009,07,17,14,26,26.70
2009,07,17,14,27,26.80
2009,07,17,14,28,26.80
2009,07,17,14,29,26.70
2009,07,17,14,30,26.80
2009,07,17,14,31,26.90
2009,07,17,14,32,26.90
2009,07,17,14,33,26.90
2009,07,17,14,34,26.80
2009,07,17,14,35,26.60
2009,07,17,14,36,26.60
2009,07,17,14,37,26.50
2009,07,17,14,38,26.60
2009,07,17,14,39,26.50
2009,07,17,14,40,26.40
2009,07,17,14,41,26.50
2009,07,17,14,42,26.50
2009,07,17,14,43,26.60
2009,07,17,14,44,26.70
2009,07,17,14,45,26.80
2009,07,17,14,46,26.90
2009,07,17,14,47,27.00
2009,07,17,14,48,27.00
2009,07,17,14,49,27.10
2009,07,17,14,50,27.20
2009,07,17,14,51,27.30
2009,07,17,14,52,27.30
2009,07,17,14,53,27.20
2009,07,17,14,54,27.10
2009,07,17,14,55,27.10
2009,07,17,14,56,27.20
2009,07,17,14,57,27.10
2009,07,17,14,58,27.10
2009,07,17,14,59,27.10
2009,07,17,15,00,27.10
2009,07,17,15,01,27.10
2009,07,17,15,02,27.10
2009,07,17,15,03,27.00
2009,07,17,15,04,26.90
2009,07,17,15,05,26.80
2009,07,17,15,06,26.80
2009,07,17,15,07,26.60
2009,07,17,15,08,26.70
2009,07,17,15,09,26.70
2009,07,17,15,10,26.90
2009,07,17,15,11,27.00
2009,07,17,15,12,27.10
2009,07,17,15,13,27.10
2009,07,17,15,14,27.20
2009,07,17,15,15,27.30
2009,07,17,15,16,27.30
2009,07,17,15,17,27.30
2009,07,17,15,18,27.30
2009,07,17,15,19,27.30
2009,07,17,15,20,27.30
2009,07,17,15,21,27.30
2009,07,17,15,22,27.20
2009,07,17,15,23,27.30
2009,07,17,15,24,27.30
2009,07,17,15,25,27.40
2009,07,17,15,26,27.50
2009,07,17,15,27,27.60
2009,07,17,15,28,27.60
2009,07,17,15,29,27.70
2009,07,17,15,30,27.70
2009,07,17,15,31,27.70
2009,07,17,15,32,27.70
2009,07,17,15,33,27.70
2009,07,17,15,34,27.70
2009,07,17,15,35,27.70
2009,07,17,15,36,27.60
2009,07,17,15,37,27.50
2009,07,17,15,38,27.50
2009,07,17,15,39,27.60
2009,07,17,15,40,27.60
2009,07,17,15,41,27.60
2009,07,17,15,42,27.60
2009,07,17,15,43,27.70
2009,07,17,15,44,27.70
2009,07,17,15,45,27.60
2009,07,17,15,46,27.60
2009,07,17,15,47,27.60
2009,07,17,15,48,27.70
2009,07,17,15,49,27.70
2009,07,17,15,50,27.70
2009,07,17,15,51,27.70
2009,07,17,15,52,27.70
2009,07,17,15,53,27.70
2009,07,17,15,54,27.70
2009,07,17,15,55,27.60
2009,07,17,15,56,27.50
2009,07,17,15,57,27.40
2009,07,17,15,58,27.40
2009,07,17,15,59,27.40
2009,07,17,16,00,27.40
2009,07,17,16,01,27.30
2009,07,17,16,02,27.20
2009,07,17,16,03,27.20
2009,07,17,16,04,27.20
2009,07,17,16,05,27.20
2009,07,17,16,06,27.40
2009,07,17,16,07,27.40
2009,07,17,16,08,27.40
2009,07,17,16,09,27.40
2009,07,17,16,10,27.40
2009,07,17,16,11,27.50
2009,07,17,16,12,27.50
2009,07,17,16,13,27.60
2009,07,17,16,14,27.60
2009,07,17,16,15,27.60
2009,07,17,16,16,27.50
2009,07,17,16,17,27.40
2009,07,17,16,18,27.40
2009,07,17,16,19,27.50
2009,07,17,16,20,27.40
2009,07,17,16,21,27.30
2009,07,17,16,22,27.30
2009,07,17,16,23,27.40
2009,07,17,16,24,27.40
2009,07,17,16,25,27.40
2009,07,17,16,26,27.50
2009,07,17,16,27,27.50
2009,07,17,16,28,27.50
2009,07,17,16,29,27.40
2009,07,17,16,30,27.40
2009,07,17,16,31,27.30
2009,07,17,16,32,27.30
2009,07,17,16,33,27.20
2009,07,17,16,34,27.30
2009,07,17,16,35,27.30
2009,07,17,16,36,27.30
2009,07,17,16,37,27.30
2009,07,17,16,38,27.30
2009,07,17,16,39,27.30
2009,07,17,16,40,27.20
2009,07,17,16,41,27.20
2009,07,17,16,42,27.20
2009,07,17,16,43,27.20
2009,07,17,16,44,27.20
2009,07,17,16,45,27.20
2009,07,17,16,46,27.30
2009,07,17,16,47,27.30
2009,07,17,16,48,27.20
2009,07,17,16,49,27.20
2009,07,17,16,50,27.20
2009,07,17,16,51,27.10
2009,07,17,16,52,27.10
2009,07,17,16,53,27.10
2009,07,17,16,54,27.10
2009,07,17,16,55,27.10
2009,07,17,16,56,27.10
2009,07,17,16,57,27.20
2009,07,17,16,58,27.20
2009,07,17,16,59,27.30
2009,07,17,17,00,27.40
2009,07,17,17,01,27.50
2009,07,17,17,02,27.40
2009,07,17,17,03,27.40
2009,07,17,17,04,27.40
2009,07,17,17,05,27.40
2009,07,17,17,06,27.50
2009,07,17,17,07,27.50
2009,07,17,17,08,27.50
2009,07,17,17,09,27.50
2009,07,17,17,10,27.60
2009,07,17,17,11,27.60
2009,07,17,17,12,27.50
2009,07,17,17,13,27.50
2009,07,17,17,14,27.40
2009,07,17,17,15,27.30
2009,07,17,17,16,27.30
2009,07,17,17,17,27.40
2009,07,17,17,18,27.40
2009,07,17,17,19,27.40